IW7DVM-13 Weather Reports


Display with metric or nautical units.
time (UTC)temp
F
wind
direction
speed
MPH
gust
MPH
rain 1hr
in
rain 24hr
in
rain mn
in
humidity
%
barometer
mb
20260506141503 66 134 6.0 13.0 0.00 0.00 0.00 71 1009.7
20260506141003 66 139 5.0 10.0 0.00 0.00 0.00 71 1009.7
20260506140503 66 128 5.0 15.0 0.00 0.00 0.00 71 1009.7
20260506140003 65 142 4.0 10.0 0.00 0.00 0.00 71 1009.9
20260506135503 65 145 4.0 13.0 0.00 0.00 0.00 71 1009.8
20260506135003 65 146 6.0 11.0 0.00 0.00 0.00 71 1009.7
20260506134503 65 133 5.0 11.0 0.00 0.00 0.00 71 1009.7
20260506134003 65 126 4.0 13.0 0.00 0.00 0.00 71 1009.9
20260506133503 65 134 4.0 12.0 0.00 0.00 0.00 71 1009.9
20260506133003 65 132 4.0 12.0 0.00 0.00 0.00 71 1010.1
20260506132503 65 140 4.0 10.0 0.00 0.00 0.00 71 1010.1
20260506132003 65 136 4.0 11.0 0.00 0.00 0.00 71 1010.1
20260506131503 65 132 3.0 8.0 0.00 0.00 0.00 71 1010.2
20260506131003 65 138 4.0 13.0 0.00 0.00 0.00 71 1010.1
20260506130503 65 130 4.0 10.0 0.00 0.00 0.00 71 1010.2
20260506130003 65 145 4.0 9.0 0.00 0.00 0.00 71 1010.3
20260506125503 65 152 4.0 13.0 0.00 0.00 0.00 71 1010.3
20260506125003 65 141 4.0 12.0 0.00 0.00 0.00 71 1010.3
20260506124503 65 140 4.0 10.0 0.00 0.00 0.00 71 1010.3
20260506124003 64 140 6.0 13.0 0.00 0.00 0.00 71 1010.2
20260506123503 64 145 6.0 13.0 0.00 0.00 0.00 71 1010.2
20260506123003 64 127 4.0 12.0 0.00 0.00 0.00 71 1010.1
20260506122503 64 140 5.0 14.0 0.00 0.00 0.00 71 1010.1
20260506122003 64 130 5.0 16.0 0.00 0.00 0.00 71 1010.1
20260506121503 65 127 5.0 12.0 0.00 0.00 0.00 71 1010.1
20260506121003 65 144 6.0 14.0 0.00 0.00 0.00 71 1010.1
20260506120503 65 133 5.0 12.0 0.00 0.00 0.00 71 1010.1
20260506120003 65 141 6.0 14.0 0.00 0.00 0.00 71 1010.0
20260506115503 65 143 5.0 13.0 0.00 0.00 0.00 71 1010.1
20260506115003 65 134 5.0 12.0 0.00 0.00 0.00 71 1010.0
20260506114503 65 129 5.0 10.0 0.00 0.00 0.00 71 1010.1
20260506114003 65 145 6.0 15.0 0.00 0.00 0.00 71 1010.0
20260506113503 65 131 6.0 14.0 0.00 0.00 0.00 71 1010.1
20260506113003 65 150 6.0 13.0 0.00 0.00 0.00 71 1010.2
20260506112503 65 152 5.0 11.0 0.00 0.00 0.00 71 1010.3
20260506112003 65 143 6.0 14.0 0.00 0.00 0.00 71 1010.4
20260506111503 65 141 4.0 9.0 0.00 0.00 0.00 71 1010.3
20260506111003 65 155 6.0 16.0 0.00 0.00 0.00 71 1010.3
20260506110503 65 134 6.0 14.0 0.00 0.00 0.00 71 1010.4
20260506110003 66 131 5.0 11.0 0.00 0.00 0.00 71 1010.5
20260506105503 65 136 5.0 11.0 0.00 0.00 0.00 71 1010.5
20260506105003 65 127 5.0 11.0 0.00 0.00 0.00 71 1010.6
20260506104503 65 141 5.0 13.0 0.00 0.00 0.00 71 1010.6
20260506104003 66 140 5.0 11.0 0.00 0.00 0.00 71 1010.6
20260506103503 66 138 5.0 12.0 0.00 0.00 0.00 71 1010.6
20260506103003 66 140 4.0 14.0 0.00 0.00 0.00 71 1010.6
20260506102503 66 143 6.0 15.0 0.00 0.00 0.00 71 1010.6
20260506102003 66 139 5.0 14.0 0.00 0.00 0.00 71 1010.7
20260506101503 66 134 5.0 12.0 0.00 0.00 0.00 71 1010.7
20260506101003 66 131 5.0 12.0 0.00 0.00 0.00 71 1010.6
20260506100503 66 148 4.0 10.0 0.00 0.00 0.00 71 1010.9
20260506100003 66 144 5.0 14.0 0.00 0.00 0.00 71 1010.7
20260506095503 66 143 6.0 16.0 0.00 0.00 0.00 71 1010.8
20260506095003 66 140 5.0 12.0 0.00 0.00 0.00 71 1010.7
20260506094503 66 143 4.0 9.0 0.00 0.00 0.00 71 1010.7
20260506094003 66 139 4.0 9.0 0.00 0.00 0.00 71 1010.7
20260506093503 66 133 5.0 11.0 0.00 0.00 0.00 71 1010.7
20260506093003 66 142 6.0 13.0 0.00 0.00 0.00 71 1010.8
20260506092503 66 141 6.0 14.0 0.00 0.00 0.00 71 1010.6
20260506092003 65 148 5.0 11.0 0.00 0.00 0.00 71 1010.6
20260506091503 65 124 5.0 11.0 0.00 0.00 0.00 71 1010.7
20260506091003 65 140 7.0 16.0 0.00 0.00 0.00 71 1010.6
20260506090503 65 146 7.0 12.0 0.00 0.00 0.00 71 1010.5
20260506090003 65 128 5.0 13.0 0.00 0.00 0.00 71 1010.5
20260506085503 65 140 5.0 12.0 0.00 0.00 0.00 71 1010.6
20260506085003 65 138 5.0 15.0 0.00 0.00 0.00 71 1010.4
20260506084503 65 122 5.0 12.0 0.00 0.00 0.00 71 1010.4
20260506084003 65 147 6.0 12.0 0.00 0.00 0.00 71 1010.3
20260506083503 65 130 4.0 9.0 0.00 0.00 0.00 71 1010.3
20260506083003 65 138 5.0 12.0 0.00 0.00 0.00 71 1010.4
20260506082503 65 133 5.0 14.0 0.00 0.00 0.00 71 1010.4
20260506082003 65 137 5.0 12.0 0.00 0.00 0.00 71 1010.4
20260506081503 65 139 4.0 11.0 0.00 0.00 0.00 71 1010.4
20260506081003 65 140 3.0 10.0 0.00 0.00 0.00 71 1010.4
20260506080503 65 141 4.0 13.0 0.00 0.00 0.00 71 1010.3
20260506073503 65 134 4.0 10.0 0.00 0.00 0.00 71 1010.2
20260506073003 65 136 4.0 10.0 0.00 0.00 0.00 72 1010.2
20260506072503 65 143 3.0 9.0 0.00 0.00 0.00 72 1010.3
20260506071503 64 147 7.0 16.0 0.00 0.00 0.00 72 1010.4
20260506071003 64 145 5.0 12.0 0.00 0.00 0.00 72 1010.4
20260506070503 64 142 5.0 10.0 0.00 0.00 0.00 72 1010.5
20260506062503 63 145 4.0 9.0 0.00 0.00 0.00 73 1010.0
20260506062003 63 141 5.0 11.0 0.00 0.00 0.00 73 1010.1
20260506061503 63 142 4.0 11.0 0.00 0.00 0.00 73 1010.0
20260506061003 63 142 5.0 11.0 0.00 0.00 0.00 73 1010.0
20260506060503 63 134 6.0 13.0 0.00 0.00 0.00 73 1009.9
20260506051003 62 119 2.0 10.0 0.00 0.00 0.00 74 1009.5
20260506050503 62 125 3.0 7.0 0.00 0.00 0.00 74 1009.5
20260506045003 62 130 2.0 7.0 0.00 0.00 0.00 74 1009.5
20260506044503 62 126 2.0 5.0 0.00 0.00 0.00 74 1009.5
20260506044003 62 126 2.0 7.0 0.00 0.00 0.00 74 1009.5
20260506043503 62 100 1.0 5.0 0.00 0.00 0.00 74 1009.6
20260506043003 62 123 1.0 4.0 0.00 0.00 0.00 74 1009.5
20260506042503 62 92 1.0 3.0 0.00 0.00 0.00 74 1009.5
20260506042003 62 91 1.0 5.0 0.00 0.00 0.00 74 1009.4
20260506041503 62 101 1.0 3.0 0.00 0.00 0.00 74 1009.4
20260506041003 62 101 1.0 4.0 0.00 0.00 0.00 74 1009.4
20260506040503 62 77 1.0 3.0 0.00 0.00 0.00 74 1009.3
20260506040003 62 100 1.0 4.0 0.00 0.00 0.00 74 1009.3
20260506035503 62 94 1.0 2.0 0.00 0.00 0.00 74 1009.3
20260506035003 62 105 1.0 2.0 0.00 0.00 0.00 74 1009.2
20260506034503 62 79 0.0 4.0 0.00 0.00 0.00 74 1009.3
20260506034003 62 84 0.0 2.0 0.00 0.00 0.00 74 1009.3
20260506033503 62 68 1.0 4.0 0.00 0.00 0.00 74 1009.3
20260506033003 62 55 0.0 4.0 0.00 0.00 0.00 74 1009.3
20260506032503 62 72 0.0 3.0 0.00 0.00 0.00 74 1009.3
20260506032003 62 60 0.0 4.0 0.00 0.00 0.00 74 1009.3
20260506031503 62 103 1.0 4.0 0.00 0.00 0.00 74 1009.2
20260506031003 62 109 1.0 3.0 0.00 0.00 0.00 74 1009.3
20260506030503 62 103 1.0 4.0 0.00 0.00 0.00 74 1009.3
20260506030003 62 83 0.0 2.0 0.00 0.00 0.00 74 1009.2
20260506025503 62 97 0.0 3.0 0.00 0.00 0.00 73 1009.3
20260506025003 62 130 1.0 5.0 0.00 0.00 0.00 73 1009.4
20260506024503 62 131 1.0 4.0 0.00 0.00 0.00 73 1009.4
20260506024003 62 137 2.0 6.0 0.00 0.00 0.00 73 1009.3
20260506023503 62 135 2.0 7.0 0.00 0.00 0.00 73 1009.3
20260506023003 62 139 2.0 5.0 0.00 0.00 0.00 73 1009.3
20260506022503 62 131 2.0 6.0 0.00 0.00 0.00 73 1009.2
20260506022003 62 130 1.0 4.0 0.00 0.00 0.00 73 1009.3
20260506021503 62 138 3.0 6.0 0.00 0.00 0.00 73 1009.2
20260506021003 62 130 2.0 7.0 0.00 0.00 0.00 73 1009.3
20260506020503 62 113 1.0 6.0 0.00 0.00 0.00 73 1009.3
20260506020003 62 116 1.0 3.0 0.00 0.00 0.00 73 1009.4
20260506015503 62 106 0.0 2.0 0.00 0.00 0.00 73 1009.4
20260506015003 62 58 1.0 4.0 0.00 0.00 0.00 73 1009.2
20260506014503 61 48 2.0 3.0 0.00 0.00 0.00 73 1009.4
20260506014003 61 46 2.0 4.0 0.00 0.00 0.00 73 1009.3
20260506013503 61 45 2.0 4.0 0.00 0.00 0.00 73 1009.2
20260506013003 61 36 3.0 5.0 0.00 0.00 0.00 73 1009.2
20260506012503 61 41 3.0 4.0 0.00 0.00 0.00 73 1009.2
20260506012003 61 24 3.0 5.0 0.00 0.00 0.00 73 1009.3
20260506011503 61 23 3.0 4.0 0.00 0.00 0.00 73 1009.3
20260506011003 61 24 3.0 4.0 0.00 0.00 0.00 73 1009.3
20260506010503 61 45 1.0 3.0 0.00 0.00 0.00 73 1009.4
20260506010003 61 46 1.0 3.0 0.00 0.00 0.00 73 1009.4
20260506005503 61 39 3.0 6.0 0.00 0.00 0.00 73 1009.3
20260506005003 61 29 4.0 7.0 0.00 0.00 0.00 73 1009.3
20260506004503 61 22 3.0 4.0 0.00 0.00 0.00 73 1009.3
20260506004003 61 22 2.0 4.0 0.00 0.00 0.00 73 1009.3
20260506003503 61 31 1.0 4.0 0.00 0.00 0.00 73 1009.4
20260506003003 61 45 2.0 4.0 0.00 0.00 0.00 73 1009.4
20260506002503 61 45 1.0 3.0 0.00 0.00 0.00 73 1009.5
20260506002003 61 35 2.0 5.0 0.00 0.00 0.00 73 1009.5
20260506001503 61 51 2.0 4.0 0.00 0.00 0.00 73 1009.5
20260506001003 61 48 3.0 6.0 0.00 0.00 0.00 73 1009.5
20260506000503 61 51 3.0 6.0 0.00 0.00 0.00 73 1009.5
20260506000003 61 58 2.0 6.0 0.00 0.00 0.00 73 1009.5
20260505235503 61 53 3.0 7.0 0.00 0.00 0.00 73 1009.6
20260505235003 61 58 3.0 6.0 0.00 0.00 0.00 73 1009.6
20260505234503 61 62 2.0 5.0 0.00 0.00 0.00 73 1009.6
20260505234003 61 55 1.0 3.0 0.00 0.00 0.00 73 1009.7
20260505233503 61 65 1.0 3.0 0.00 0.00 0.00 73 1009.6
20260505233003 61 74 1.0 4.0 0.00 0.00 0.00 73 1009.6
20260505232503 61 69 2.0 4.0 0.00 0.00 0.00 73 1009.7
20260505232003 61 56 3.0 5.0 0.00 0.00 0.00 73 1009.7
20260505231503 61 49 4.0 6.0 0.00 0.00 0.00 73 1009.8
20260505231003 61 53 4.0 7.0 0.00 0.00 0.00 73 1009.8
20260505230503 61 48 3.0 6.0 0.00 0.00 0.00 73 1009.9
20260505230003 61 50 2.0 6.0 0.00 0.00 0.00 73 1010.0
20260505225503 61 51 2.0 4.0 0.00 0.00 0.00 73 1010.0
20260505225003 61 61 2.0 5.0 0.00 0.00 0.00 72 1010.0
20260505224503 61 47 3.0 6.0 0.00 0.00 0.00 72 1010.2
20260505224003 61 64 2.0 4.0 0.00 0.00 0.00 72 1010.0
20260505223503 61 58 2.0 5.0 0.00 0.00 0.00 72 1010.1
20260505223003 62 68 1.0 5.0 0.00 0.00 0.00 72 1010.2
20260505222503 62 56 2.0 5.0 0.00 0.00 0.00 72 1010.1
20260505222003 62 62 2.0 4.0 0.00 0.00 0.00 72 1010.2
20260505221503 62 56 1.0 3.0 0.00 0.00 0.00 72 1010.3
20260505221003 62 50 1.0 4.0 0.00 0.00 0.00 72 1010.3
20260505220503 62 51 3.0 5.0 0.00 0.00 0.00 72 1010.4
20260505220003 62 52 2.0 3.0 0.00 0.00 0.00 72 1010.3
20260505215503 62 45 0.0 2.0 0.00 0.00 0.00 72 1010.3
20260505215003 62 45 0.0 3.0 0.00 0.00 0.00 72 1010.3
20260505214503 62 64 1.0 2.0 0.00 0.00 0.00 72 1010.4
20260505214003 62 96 1.0 4.0 0.00 0.00 0.00 72 1010.5
20260505213506 62 96 1.0 3.0 0.00 0.00 0.00 72 1010.6
20260505213003 62 73 1.0 5.0 0.00 0.00 0.00 72 1010.5
20260505212503 62 66 1.0 4.0 0.00 0.00 0.00 72 1010.6
20260505212003 62 76 1.0 4.0 0.00 0.00 0.00 72 1010.6
20260505211503 62 80 1.0 5.0 0.00 0.00 0.00 72 1010.6
20260505211003 62 83 2.0 5.0 0.00 0.00 0.00 72 1010.7
20260505210003 62 56 2.0 5.0 0.00 0.00 0.00 72 1010.7
20260505205503 62 58 2.0 5.0 0.00 0.00 0.00 72 1010.9
20260505205003 62 59 1.0 4.0 0.00 0.00 0.00 72 1010.9
20260505204503 62 59 0.0 3.0 0.00 0.00 0.00 72 1011.0
20260505204003 62 99 1.0 3.0 0.00 0.00 0.00 72 1010.9
20260505203503 62 119 1.0 4.0 0.00 0.00 0.00 72 1010.9
20260505203003 62 65 1.0 5.0 0.00 0.00 0.00 72 1010.8
20260505202503 62 75 1.0 3.0 0.00 0.00 0.00 72 1010.9
20260505202003 62 101 0.0 3.0 0.00 0.00 0.00 72 1010.9
20260505201503 62 94 1.0 3.0 0.00 0.00 0.00 72 1010.9
20260505201003 62 69 1.0 4.0 0.00 0.00 0.00 72 1010.8
20260505200503 62 86 1.0 2.0 0.00 0.00 0.00 72 1010.8
20260505200003 62 111 1.0 4.0 0.00 0.00 0.00 72 1011.0
20260505195503 62 109 1.0 4.0 0.00 0.00 0.00 72 1011.0
20260505195003 62 79 1.0 3.0 0.00 0.00 0.00 72 1010.9
20260505194503 62 72 1.0 3.0 0.00 0.00 0.00 72 1010.9
20260505194003 62 89 1.0 4.0 0.00 0.00 0.00 72 1010.9
20260505193503 62 78 1.0 4.0 0.00 0.00 0.00 72 1010.9
20260505193003 62 60 1.0 2.0 0.00 0.00 0.00 72 1010.9
20260505192503 62 51 1.0 4.0 0.00 0.00 0.00 72 1010.8
20260505192003 62 70 1.0 4.0 0.00 0.00 0.00 72 1010.8
20260505191503 62 64 1.0 5.0 0.00 0.00 0.00 72 1010.6
20260505191003 63 69 2.0 4.0 0.00 0.00 0.00 72 1010.8
20260505190503 63 74 1.0 4.0 0.00 0.00 0.00 72 1010.8
20260505190003 63 79 1.0 4.0 0.00 0.00 0.00 72 1010.7
20260505185503 63 75 1.0 5.0 0.00 0.00 0.00 72 1010.5
20260505185003 63 55 1.0 4.0 0.00 0.00 0.00 72 1010.4
20260505184503 63 60 1.0 5.0 0.00 0.00 0.00 72 1010.5
20260505184003 63 62 1.0 4.0 0.00 0.00 0.00 72 1010.6
20260505183503 63 96 1.0 4.0 0.00 0.00 0.00 72 1010.6
20260505183003 63 99 1.0 5.0 0.00 0.00 0.00 72 1010.5
20260505182503 63 111 1.0 4.0 0.00 0.00 0.00 72 1010.5
20260505182003 63 111 1.0 5.0 0.00 0.00 0.00 72 1010.5
20260505181503 63 80 1.0 5.0 0.00 0.00 0.00 72 1010.6
20260505181003 63 103 1.0 5.0 0.00 0.00 0.00 72 1010.5
20260505180503 63 118 2.0 6.0 0.00 0.00 0.00 72 1010.5
20260505180003 63 83 1.0 5.0 0.00 0.00 0.00 72 1010.4
20260505175503 63 113 1.0 6.0 0.00 0.00 0.00 72 1010.5
20260505175003 63 126 3.0 8.0 0.00 0.00 0.00 72 1010.4
20260505174503 64 123 2.0 6.0 0.00 0.00 0.00 72 1010.5
20260505174003 64 126 2.0 6.0 0.00 0.00 0.00 72 1010.5
20260505173503 64 126 2.0 6.0 0.00 0.00 0.00 72 1010.6
20260505173003 64 131 3.0 7.0 0.00 0.00 0.00 72 1010.3
20260505172503 64 127 3.0 7.0 0.00 0.00 0.00 72 1010.4
20260505172003 64 116 2.0 8.0 0.00 0.00 0.00 72 1010.4
20260505171503 64 127 3.0 8.0 0.00 0.00 0.00 72 1010.4
20260505171003 64 120 3.0 6.0 0.00 0.00 0.00 72 1010.4
20260505170503 64 94 2.0 8.0 0.00 0.00 0.00 72 1010.6
20260505170003 64 87 2.0 6.0 0.00 0.00 0.00 72 1010.6
20260505165503 64 124 2.0 6.0 0.00 0.00 0.00 72 1010.7
20260505165003 64 88 2.0 7.0 0.00 0.00 0.00 71 1010.6
20260505164503 64 108 2.0 6.0 0.00 0.00 0.00 72 1010.7
20260505164003 64 85 2.0 8.0 0.00 0.00 0.00 71 1010.7
20260505163507 64 73 2.0 6.0 0.00 0.00 0.00 71 1010.7
20260505163003 64 109 2.0 9.0 0.00 0.00 0.00 72 1010.8
20260505162503 64 85 2.0 6.0 0.00 0.00 0.00 71 1010.8
20260505162003 64 106 2.0 5.0 0.00 0.00 0.00 72 1010.9
20260505161503 64 94 2.0 6.0 0.00 0.00 0.00 72 1010.8
20260505161003 64 105 2.0 10.0 0.00 0.00 0.00 71 1010.8
20260505160503 64 128 2.0 9.0 0.00 0.00 0.00 71 1010.9
20260505153003 65 140 3.0 9.0 0.00 0.00 0.00 71 1011.1
20260505152503 65 122 3.0 9.0 0.00 0.00 0.00 71 1011.0
20260505152003 65 146 3.0 8.0 0.00 0.00 0.00 71 1011.1
20260505151503 65 136 3.0 9.0 0.00 0.00 0.00 71 1011.0
20260505151003 65 139 3.0 8.0 0.00 0.00 0.00 71 1011.0
20260505150503 65 135 2.0 6.0 0.00 0.00 0.00 71 1011.0